This demonstration page uses our WeatherBlox Daily Observations layout. Learn more.

Left ArrowRight Arrow

44.8408, -93.29828

Hourly Observations for July 23, 2017

Temp ( °F °C ) Dew Point ( °F °C ) Humidity (%) Winds ( mph kmh ) Pressure ( in mb ) Visibility ( mi km ) Precip ( " mm )
12:53 am 00:53 Partly Cloudy 72 22.2 61 16.1 68 68 WNW 6 9 29.83 1010 10 16 0.00 0.00
1:53 am 01:53 Mostly Clear 72 22.2 61 16.1 68 68 NNW 6 9 29.81 1010 10 16 0.00 0.00
2:53 am 02:53 Mostly Cloudy 72 22.2 59 15 64 64 NNW 6 9 29.81 1009 10 16 0.00 0.00
3:53 am 03:53 Mostly Cloudy 73 22.8 55 12.8 53 53 NNW 6 9 29.81 1010 10 16 0.00 0.00
4:53 am 04:53 Mostly Cloudy 71 21.7 55 12.8 57 57 NW 9 15 29.83 1010 10 16 0.00 0.00
5:53 am 05:53 Mostly Cloudy 70 21.1 55 12.8 59 59 NNW 9 15 29.83 1010 10 16 0.00 0.00
6:53 am 06:53 Partly Cloudy 69 20.6 56 13.3 63 63 NNW 12 19 29.86 1011 10 16 0.00 0.00
7:53 am 07:53 Mostly Sunny 70 21.1 56 13.3 61 61 NNW 12 19 29.87 1012 10 16 0.00 0.00
8:53 am 08:53 Mostly Sunny 72 22.2 56 13.3 57 57 N 8 13 29.87 1012 10 16 0.00 0.00
9:53 am 09:53 Mostly Cloudy 74 23.3 56 13.3 54 54 NNW 14 22 29.88 1012 10 16 0.00 0.00
10:53 am 10:53 Mostly Cloudy 74 23.3 59 15 60 60 NNW 12 19 29.90 1012 10 16 0.00 0.00
11:53 am 11:53 Cloudy 72 22.2 58 14.4 61 61 NNW 10 17 29.91 1013 10 16 0.00 0.00
12:53 pm 12:53 Mostly Cloudy 74 23.3 58 14.4 57 57 N 9 15 29.92 1013 10 16 0.00 0.00
1:53 pm 13:53 Cloudy 74 23.3 58 14.4 57 57 NNW 13 20 29.93 1013 10 16 0.00 0.00
2:53 pm 14:53 Mostly Cloudy 75 23.9 59 15 58 58 N 12 19 29.93 1013 10 16 0.00 0.00
3:53 pm 15:53 Mostly Cloudy 78 25.6 59 15 52 52 NNE 15 24 29.93 1013 10 16 0.00 0.00
4:53 pm 16:53 Mostly Cloudy 78 25.6 59 15 52 52 NE 13 20 29.93 1014 10 16 0.00 0.00
5:53 pm 17:53 Partly Cloudy 75 23.9 57 13.9 54 54 NE 16 26 29.94 1014 10 16 0.00 0.00
6:53 pm 18:53 Mostly Sunny 74 23.3 57 13.9 56 56 ENE 16 26 29.96 1014 10 16 0.00 0.00
7:53 pm 19:53 Mostly Sunny 73 22.8 55 12.8 53 53 NE 13 20 29.96 1014 10 16 0.00 0.00
8:53 pm 20:53 Mostly Clear 71 21.7 57 13.9 61 61 NE 10 17 29.97 1015 10 16 0.00 0.00
9:53 pm 21:53 Clear 69 20.6 57 13.9 66 66 ENE 6 9 29.99 1016 10 16 0.00 0.00
10:53 pm 22:53 Clear 67 19.4 57 13.9 71 71 ENE 8 13 30.00 1016 10 16 0.00 0.00
11:53 pm 23:53 Clear 65 18.3 56 13.3 73 73 ENE 7 11 30.02 1017 10 16 0.00 0.00

Powered by AerisWeather